Meteo pe oră la Aberchirder

Astăzi, 5 August, Joi

Timp Temperatura Precipitaţii Vânt Presiune Umiditate
00:00 +12°C° 0 mm 3 m/s 743 mmHg 89%
01:00 +12°C° 0 mm 3 m/s 743 mmHg 89%
02:00 +12°C° 0 mm 3 m/s 742 mmHg 89%
03:00 +12°C° 0 mm 4 m/s 742 mmHg 89%
04:00 +12°C° 0 mm 4 m/s 742 mmHg 86%
05:00 +12°C° 0 mm 4 m/s 742 mmHg 84%
06:00 +13°C° 0 mm 4 m/s 741 mmHg 81%
07:00 +14°C° 0 mm 4 m/s 741 mmHg 75%
08:00 +16°C° 0 mm 5 m/s 741 mmHg 69%
09:00 +17°C° 0 mm 5 m/s 741 mmHg 63%
10:00 +19°C° 0 mm 6 m/s 741 mmHg 60%
11:00 +20°C° 0 mm 6 m/s 741 mmHg 58%
12:00 +21°C° 0 mm 7 m/s 740 mmHg 56%
13:00 +20°C° 0 mm 8 m/s 740 mmHg 58%
14:00 +20°C° 0 mm 8 m/s 740 mmHg 61%
15:00 +18°C° 0 mm 9 m/s 740 mmHg 64%
16:00 +18°C° 0 mm 9 m/s 739 mmHg 69%
17:00 +17°C° 0 mm 8 m/s 739 mmHg 73%
18:00 +16°C° 0 mm 8 m/s 739 mmHg 78%
19:00 +15°C° 0 mm 7 m/s 739 mmHg 83%
20:00 +14°C° 0 mm 7 m/s 739 mmHg 88%
21:00 +14°C° 0 mm 7 m/s 739 mmHg 92%
22:00 +14°C° 0 mm 6 m/s 738 mmHg 92%
23:00 +14°C° 0 mm 6 m/s 738 mmHg 92%

Mâine, 6 August, Vineri

Timp Temperatura Precipitaţii Vânt Presiune Umiditate
00:00 +13°C° 0 mm 6 m/s 738 mmHg 92%
01:00 +14°C° 0.1 mm 6 m/s 737 mmHg 92%
02:00 +14°C° 0.1 mm 6 m/s 737 mmHg 92%
03:00 +14°C° 0.1 mm 6 m/s 737 mmHg 92%
04:00 +14°C° 0.1 mm 7 m/s 736 mmHg 91%
05:00 +14°C° 0.1 mm 7 m/s 736 mmHg 91%
06:00 +14°C° 0.1 mm 7 m/s 736 mmHg 91%
07:00 +15°C° 1 mm 7 m/s 735 mmHg 92%
08:00 +15°C° 1 mm 7 m/s 735 mmHg 93%
09:00 +15°C° 1 mm 7 m/s 735 mmHg 94%
10:00 +15°C° 0.5 mm 7 m/s 735 mmHg 93%
11:00 +15°C° 0.5 mm 7 m/s 734 mmHg 93%
12:00 +15°C° 0.5 mm 7 m/s 734 mmHg 92%
13:00 +16°C° 0.3 mm 7 m/s 734 mmHg 90%
14:00 +16°C° 0.3 mm 6 m/s 733 mmHg 88%
15:00 +17°C° 0.3 mm 6 m/s 733 mmHg 86%
16:00 +17°C° 0.1 mm 6 m/s 733 mmHg 86%
17:00 +17°C° 0.1 mm 6 m/s 733 mmHg 86%
18:00 +16°C° 0.1 mm 6 m/s 733 mmHg 86%
19:00 +15°C° 0.1 mm 5 m/s 733 mmHg 90%
20:00 +14°C° 0.1 mm 5 m/s 733 mmHg 94%
21:00 +13°C° 0.1 mm 5 m/s 733 mmHg 97%
22:00 +14°C° 0 mm 4 m/s 733 mmHg 97%
23:00 +14°C° 0 mm 4 m/s 733 mmHg 96%

Poimâine, 7 August, Sâmbătă

Timp Temperatura Precipitaţii Vânt Presiune Umiditate
00:00 +14°C° 0 mm 4 m/s 733 mmHg 96%
01:00 +13°C° 0 mm 4 m/s 733 mmHg 96%
02:00 +13°C° 0 mm 3 m/s 733 mmHg 97%
03:00 +13°C° 0 mm 3 m/s 733 mmHg 97%
04:00 +13°C° 0 mm 3 m/s 733 mmHg 96%
05:00 +13°C° 0 mm 3 m/s 732 mmHg 96%
06:00 +14°C° 0 mm 2 m/s 732 mmHg 95%
07:00 +14°C° 0.1 mm 3 m/s 732 mmHg 90%
08:00 +17°C° 0.1 mm 3 m/s 732 mmHg 84%
09:00 +18°C° 0.1 mm 4 m/s 732 mmHg 79%
10:00 +18°C° 0.2 mm 4 m/s 732 mmHg 77%
11:00 +17°C° 0.2 mm 5 m/s 732 mmHg 76%
12:00 +19°C° 0.2 mm 5 m/s 732 mmHg 74%
13:00 +19°C° 0.2 mm 6 m/s 732 mmHg 73%
14:00 +19°C° 0.2 mm 6 m/s 733 mmHg 73%
15:00 +17°C° 0.2 mm 7 m/s 733 mmHg 73%
16:00 +17°C° 0 mm 6 m/s 733 mmHg 75%
17:00 +16°C° 0 mm 6 m/s 733 mmHg 77%
18:00 +16°C° 0 mm 6 m/s 733 mmHg 80%
19:00 +15°C° 0 mm 5 m/s 733 mmHg 85%
20:00 +14°C° 0 mm 4 m/s 733 mmHg 90%
21:00 +12°C° 0 mm 4 m/s 733 mmHg 96%
22:00 +12°C° 0 mm 3 m/s 733 mmHg 96%
23:00 +12°C° 0 mm 3 m/s 733 mmHg 96%

8 August, Duminică

Timp Temperatura Precipitaţii Vânt Presiune Umiditate
00:00 +13°C° 0 mm 2 m/s 733 mmHg 96%
01:00 +13°C° 0.1 mm 2 m/s 733 mmHg 95%
02:00 +13°C° 0.1 mm 2 m/s 733 mmHg 94%
03:00 +13°C° 0.1 mm 2 m/s 733 mmHg 93%
04:00 +14°C° 0.1 mm 2 m/s 733 mmHg 92%
05:00 +14°C° 0.1 mm 2 m/s 733 mmHg 91%
06:00 +14°C° 0.1 mm 2 m/s 733 mmHg 90%
07:00 +15°C° 0.1 mm 2 m/s 733 mmHg 87%
08:00 +16°C° 0.1 mm 1 m/s 734 mmHg 85%
09:00 +18°C° 0.1 mm 1 m/s 734 mmHg 82%
10:00 +18°C° 0.3 mm 1 m/s 734 mmHg 80%
11:00 +19°C° 0.3 mm 1 m/s 734 mmHg 77%
12:00 +20°C° 0.3 mm 1 m/s 735 mmHg 75%
13:00 +20°C° 0.6 mm 1 m/s 735 mmHg 74%
14:00 +20°C° 0.6 mm 1 m/s 735 mmHg 73%
15:00 +21°C° 0.6 mm 1 m/s 735 mmHg 72%
16:00 +20°C° 1.1 mm 1 m/s 736 mmHg 77%
17:00 +19°C° 1.1 mm 1 m/s 736 mmHg 83%
18:00 +18°C° 1.1 mm 1 m/s 736 mmHg 88%
19:00 +16°C° 0.5 mm 1 m/s 737 mmHg 89%
20:00 +16°C° 0.5 mm 2 m/s 737 mmHg 90%
21:00 +14°C° 0.5 mm 3 m/s 738 mmHg 91%
22:00 +14°C° 0 mm 3 m/s 738 mmHg 92%
23:00 +13°C° 0 mm 3 m/s 739 mmHg 93%

9 August, Luni

Timp Temperatura Precipitaţii Vânt Presiune Umiditate
00:00 +13°C° 0 mm 3 m/s 739 mmHg 94%
01:00 +12°C° 0 mm 3 m/s 740 mmHg 93%
02:00 +12°C° 0 mm 3 m/s 740 mmHg 93%
03:00 +12°C° 0 mm 3 m/s 740 mmHg 92%
04:00 +12°C° 0 mm 3 m/s 741 mmHg 91%
05:00 +13°C° 0 mm 3 m/s 741 mmHg 90%
06:00 +13°C° 0 mm 3 m/s 742 mmHg 89%
07:00 +14°C° 0.1 mm 3 m/s 742 mmHg 87%
08:00 +15°C° 0.1 mm 4 m/s 743 mmHg 85%
09:00 +15°C° 0.1 mm 5 m/s 743 mmHg 83%
10:00 +17°C° 0.2 mm 4 m/s 743 mmHg 76%
11:00 +18°C° 0.2 mm 4 m/s 744 mmHg 70%
12:00 +19°C° 0.2 mm 4 m/s 744 mmHg 63%
13:00 +19°C° 0 mm 4 m/s 744 mmHg 62%
14:00 +19°C° 0 mm 3 m/s 745 mmHg 61%
15:00 +20°C° 0 mm 2 m/s 745 mmHg 60%
16:00 +18°C° 0.2 mm 2 m/s 745 mmHg 69%
17:00 +17°C° 0.2 mm 2 m/s 745 mmHg 77%
18:00 +16°C° 0.2 mm 2 m/s 746 mmHg 85%
19:00 +16°C° 0.3 mm 2 m/s 746 mmHg 87%
20:00 +15°C° 0.3 mm 2 m/s 746 mmHg 90%
21:00 +15°C° 0.3 mm 2 m/s 746 mmHg 92%
22:00 +15°C° 0.1 mm 2 m/s 746 mmHg 92%
23:00 +15°C° 0.1 mm 2 m/s 747 mmHg 92%

10 August, Marţi

Timp Temperatura Precipitaţii Vânt Presiune Umiditate
00:00 +15°C° 0.1 mm 2 m/s 747 mmHg 92%
01:00 +15°C° 0.2 mm 2 m/s 747 mmHg 93%
02:00 +15°C° 0.2 mm 2 m/s 747 mmHg 93%
03:00 +15°C° 0.2 mm 2 m/s 747 mmHg 93%
04:00 +15°C° 0.1 mm 2 m/s 747 mmHg 93%
05:00 +15°C° 0.1 mm 2 m/s 747 mmHg 93%
06:00 +14°C° 0.1 mm 3 m/s 747 mmHg 93%
07:00 +16°C° 0 mm 3 m/s 747 mmHg 90%
08:00 +17°C° 0 mm 3 m/s 747 mmHg 86%
09:00 +18°C° 0 mm 3 m/s 747 mmHg 83%
10:00 +19°C° 0 mm 3 m/s 746 mmHg 82%
11:00 +19°C° 0 mm 3 m/s 746 mmHg 81%
12:00 +19°C° 0 mm 3 m/s 746 mmHg 80%
13:00 +20°C° 0.1 mm 3 m/s 746 mmHg 74%
14:00 +22°C° 0.1 mm 3 m/s 746 mmHg 69%
15:00 +24°C° 0.1 mm 3 m/s 746 mmHg 63%
16:00 +22°C° 0.1 mm 3 m/s 746 mmHg 68%
17:00 +21°C° 0.1 mm 3 m/s 745 mmHg 73%
18:00 +20°C° 0.1 mm 4 m/s 745 mmHg 78%
19:00 +19°C° 0.1 mm 4 m/s 745 mmHg 82%
20:00 +18°C° 0.1 mm 4 m/s 745 mmHg 85%
21:00 +17°C° 0.1 mm 4 m/s 745 mmHg 89%
22:00 +17°C° 0.3 mm 4 m/s 745 mmHg 89%
23:00 +17°C° 0.3 mm 4 m/s 744 mmHg 90%
Arată mai mult

Formular de consimțământ

Meteoprog și furnizorii noștri de servicii pot stoca și accesa date personale, precum cookies, identificatori de dispozitiv sau alte tehnologii similare pe dispozitivul dumneavoastră și procesa astfel de date pentru a personaliza conținutul și reclamele, dar și pentru a oferi caracteristici de social media și pentru a analiza traficul.

  • Stocarea și/sau accesarea informațiilor pe dispozitivul dumneavoastră

    Cookies, identificatori de dispozitiv sau alte informații pot fi stocate sau accesate pe dispozitiv în scopurile indicate mai sus.

  • Reclame și conținut personalizat, evaluarea reclamelor și a conținutului, informații despre audiențe și dezvoltarea produselor

    Reclamele și conținutul pot fi personalizate pe baza unui profil. Pot fi adăugate date suplimentare pentru a personaliza mai bine reclamele și conținutul. Performanța reclamelor și conținutului poate fi măsurată. Pot fi obținute informații despre utilizatorii care au văzut reclamele și conținutul. Aceste date pot fi utilizate pentru a dezvolta sau îmbunătăți experiența utilizatorilor, sistemele și software-ul.

Dând clic pe ‘Sunt de acord’, permiteți utilizarea cookie-urilor menționate, a identificatorilor de dispozitiv, balizelor web sau altor tehnologii similare. Setările pot fi modificate din browser-ul dispozitivului dumneavoastră.

În anumite scopuri, interesele legitime pot prima asupra consimțământului. Puteți citi mai multe informații în acest sens în Politica privind Confidențialitatea Datelor și Cookie.